STARLINK-33944 (64209 NORAD) Tracking and Keplerian Element Data

This shows tracking and keplerian element data for the satellite.

Feedback or suggestion? Click here.




ElementValue
Catalog64209
NameSTARLINK-33944
Epoch Orbit592
Epoch Day354.25003472
Epoch Year2025
RAAN48.43
Inclination53.1597
Eccentricity0.0001919
Argument of Perigee72.7646
Mean Anonmoly354.9054
Mean Motion15.29372847
Decay Rate-0.00010048
L11 64209U 25117G 25354.25003472 -.00010048 00000+0 -33612-3 0 9991
L22 64209 53.1597 48.4300 0001919 72.7646 354.9054 15.29372847 5928



Live tracking and technical data element details for STARLINK-33944 (NORAD 64209). STARLINK-33944 can be tracked NOW for your location showing map with azimuth and elevation plus other details from your city location.







IsCatalogInMostPopularTable: catalog: 64209, numindb: 11
Update: records affected: 1



GetName: 64209 STARLINK-33944

Hit Count: updated at: Tue, 21 Apr 2026 20:37:05 GMT